Regional Weather Roundup
Issued by NWS Grand Forks, ND

Home | Current Version | Previous Version | Text Only | Print | Product List | Glossary On
Versions: 1 2 3 4 5 6 7 8 9 10 11 12 13 14 15 16 17 18 19 20 21 22 23 24 25 26 27 28 29 30 31 32 33 34 35 36 37 38 39 40 41 42 43 44 45 46 47 48 49 50
000
ASUS43 KFGF 060531
RWRFGF
PRAIRIE TO PINES  WEATHER ROUNDUP
NATIONAL WEATHER SERVICE EASTERN NORTH DAKOTA/GRAND FORKS ND
1200 AM CDT MON JUL 06 2015

 **SATELLITE DATA USED TO AUGMENT SKY COVER AT AUTOMATED STATIONS**
 *****  WEATHER ACROSS EASTERN NORTH DAKOTA  *****

CITY           SKY/WX    TMP DP  RH WIND       PRES   REMARKS
GRAND FORKS    CLOUDY    63  60  90 NW3       29.89R FOG
GRAND FRKS AFB MOCLDY    63  60  90 NW5       29.91R FOG
GRAND FRKS NWS   N/A     63 N/A N/A N2          N/A
DEVILS LAKE    MOCLDY    64  54  68 N10       29.95R
FARGO          CLOUDY    69  62  78 N16G23    29.88R HAZE
WAHPETON ARPT  CLOUDY    70  63  78 N10       29.87R
$$

 ***** WEATHER ACROSS CENTRAL AND WESTERN NORTH DAKOTA  *****

CITY           SKY/WX    TMP DP  RH WIND       PRES   REMARKS
BISMARCK       CLOUDY    68  58  70 NW10      29.99R HAZE
MINOT          MOCLDY    60  53  77 NW9       30.00R
JAMESTOWN      CLOUDY    66  58  75 N8        29.94R HAZE
MINOT AFB      MOCLDY    61  60  99 NW8       30.00R
GARRISON         N/A     58  55  90 N8        30.01R
WILLISTON      MOCLDY    62  52  69 N5        30.08R
DICKINSON      CLOUDY    60  51  72 N7        30.05R
HETTINGER      CLOUDY    61  57  87 NW6       30.06S FOG
$$

 *****  OTHER AIRPORT OBSERVATIONS IN OUR AREA  *****

CITY           SKY/WX    TMP DP  RH WIND       PRES   REMARKS
WALHALLA       FAIR      63  61  94 MISG      29.95R FOG
GRAFTON AIRPOR FAIR      63  63 100 NW7       29.92R FOG
VALLEY CITY AR FAIR      66  66 100 N7        29.93F FOG
CANDO          FAIR      59  54  82 N13G18    29.98R
CAVALIER APRT  FAIR      64  59  82 N13       29.93R HAZE
GWINNER          N/A     70  68  94 NW10      29.92R
SHEYENNE NWR     N/A     69  65  85 N3        29.95
ROLLA          CLOUDY    55  54  94 N9        30.01R
 ***** THE ABOVE OBSERVATIONS ARE NON NWS ARE NOT QUALITY
       CONTROLLED AND MAY MIS-REPORT RAIN FOR SNOW...
$$

  *****  WEATHER ACROSS NORTHERN MINNESOTA  *****

CITY           SKY/WX    TMP DP  RH WIND       PRES   REMARKS
FLAG ISLAND    MOCLDY    66  61  82 NW15      29.86R HAZE
WARROAD        MOCLDY    63  57  82 NW6       29.88S FOG
ROSEAU         MOCLDY    61  55  82 NW3       29.89R HAZE
HALLOCK        MOCLDY    63  57  82 N8        29.90R HAZE
THF RVR FALLS  CLOUDY    63  61  94 NW6       29.90R
BAUDETTE       CLOUDY    64  59  83 NW8       29.85R HAZE
WASKISH        CLEAR     64  63  94 NW6       29.87R FOG
CROOKSTON      CLOUDY    64  61  88 N7        29.90R FOG
STEPHEN NDAWN    N/A    N/A N/A N/A NW5         N/A
GREENBUSH NDAW   N/A     61  59  94 NW3         N/A
$$
  *****  WEATHER ACROSS CENTRAL AND WEST MINNESOTA  *****

CITY           SKY/WX    TMP DP  RH WIND       PRES   REMARKS
FOSSTON        MOCLDY    63  61  94 CALM      29.89S FOG
BEMIDJI        PTCLDY    64  63  94 N7        29.87R
PARK RAPIDS    MOCLDY    69  63  81 N8        29.87R
ELBOW LAKE     FAIR      71  66  83 N7        29.85F
WADENA         CLOUDY    70  64  83 N9        29.87R
DETROIT LAKES  PTCLDY    66  63  88 N9        29.89R
MOORHEAD       MOCLDY    68  63  83 N12G17    29.89R HAZE
FERGUS FALLS   MOCLDY    70  64  83 N6        29.86S
MORRIS MN      LGT RAIN  72  70  94 NE6       29.81F
STAPLES        PTCLDY    68  66  94 N7        29.86R
$$
  *****  WEATHER ELSEWHERE ACROSS MINNESOTA  *****

CITY           SKY/WX    TMP DP  RH WIND       PRES   REMARKS
DULUTH         CLOUDY    67  65  93 SW8       29.86R
INTRNTL FALLS  CLOUDY    63  59  87 N6        29.83R
ELY            MOCLDY    66  64  94 CALM      29.82R
CLOQUET        CLOUDY    66  64  94 SW3       29.86R
WHEATON        CLOUDY    66  64  94 N9        29.86F
BRAINERD       MOCLDY    69  67  93 N7        29.85R
HIBBING        MOCLDY    66  64  93 CALM      29.84R
ALEXANDRIA     LGT RAIN  70  67  90 N12       29.88R
SAINT CLOUD    TSTM      70  69  97 NW14G24   29.84R VSB 1/2
MINNEAPOLIS    CLOUDY    80  66  62 S14G22    29.82R
$$

  *****  WEATHER ACROSS SOUTH DAKOTA  *****

CITY           SKY/WX    TMP DP  RH WIND       PRES   REMARKS
SIOUX FALLS    CLOUDY    80  72  76 SE13      29.73F
BROOKINGS      CLOUDY    68  64  88 SE9       29.80F
WATERTOWN      CLOUDY    69  65  86 N14       29.83F
HURON          LGT RAIN  71  68  90 N16       29.81R
SISSETON         N/A     70  67  90 N9        29.86F
ABERDEEN       LGT RAIN  71  65  81 N12       29.89R
MITCHELL       TSTM      71  69  93 NW22      29.80R FOG
PIERRE         LGT RAIN  66  64  93 N15       29.90S FOG
MOBRIDGE       CLOUDY    68  65  90 N7        29.92S FOG
RAPID CITY     CLOUDY    61  58  90 N16       30.07F FOG
$$

  *****  SOME WEATHER IN NEARBY STATES *****

CITY           SKY/WX    TMP DP  RH WIND       PRES   REMARKS
GLASGOW MT     CLOUDY    61  49  64 W6        30.13R
GREAT FALLS MT CLOUDY    49  48  97 S3        30.26S
CHEYENNE WY    CLOUDY    60  57  89 N18G28    30.14R
SCOTTSBLUFF NE CLOUDY    65  63  93 N21G32    30.03R
OMAHA NE       TSTM      79  73  82 S15G24    29.81F
DES MOINES IA  PTCLDY    77  68  73 S12       29.88S
DAVENPORT IA   CLEAR     72  65  78 S10       29.96F
CHICAGO IL     CLEAR     69  61  75 S7        30.00S
EAU CLAIRE WI  CLEAR     73  65  75 S6        29.86R
LA CROSSE WI   CLEAR     74  66  76 S10G18    29.87F
$$

  *****  SOME NATIONAL WEATHER *****

CITY           SKY/WX    TMP DP  RH WIND       PRES   REMARKS
LA GUARDIA NY  PTCLDY    74  65  73 S3        30.14S
RALEIGH NC     MOCLDY    71  69  93 CALM      30.10S
ATLANTA GA     MOCLDY    73  68  84 W8        30.12F
NEW ORLEANS LA MOCLDY    73  67  81 S9        30.09F
OKLAHOMA CITY  MOCLDY    79  70  74 S12       29.95S
ALBUQUERQUE NM LGT RAIN  71  58  63 W8        30.17R
SALT LAKE CITY CLEAR     78  65  63 NW10      30.02R
LOS ANGELES CA CLOUDY    64  59  83 W9        30.02R
BOISE ID       MOCLDY    73  55  53 E7        29.97R
SEATTLE WA     PTCLDY    78  45  30 NW5       29.88R
$$

*** WEATHER ACROSS MANITOBA...SASKATCHEWAN AND ONTARIO ***
                ***ONTARIO***

CITY           SKY/WX    TMP DP  RH WIND       PRES   REMARKS
GERALDTON      LGT RAIN  64  63  94 SW8       29.74F FOG
THUNDER BAY    CLOUDY    61  59  94 SE6       29.76R
SIOUX LOOKOUT  CLOUDY    55  54  94 CALM      29.80S FOG
TORONTO        MOCLDY    70  61  73 W2        30.09S
BIG TROUT LK   CLOUDY    54  50  87 NW12G17   29.65F
PICKLE LAKE    NOT AVBL
DRYDEN         FOG       59  57  94 SW3       29.82S VSB 1/8
KENORA         MOCLDY    61  57  88 N9        29.87R SMOKE
$$
                *** MANITOBA***

CITY           SKY/WX    TMP DP  RH WIND       PRES   REMARKS
BRANDON        CLEAR     54  50  87 N6        30.01R SMOKE
DAUPHIN        CLEAR     48  46  93 W7        30.03S
ISLAND LAKE    CLOUDY    48  43  81 NW14G25   29.85R
PILOT MOUND      N/A     57  52  82 N9          N/A
THE PAS        CLEAR     54  41  62 N8        30.06R
THOMPSON       MOCLDY    43  41  93 NW5       29.97R
WINNIPEG       PTCLDY    57  52  82 N13G23    29.95R SMOKE
LYNN LAKE      CLEAR     43  39  87 SW3       30.04S
CHURCHILL      LGT RAIN  41  39  93 N18       29.84R
GILLAM         LGT RAIN  45  45 100 NW24      29.80R
$$
                ***SASKATCHEWAN***

CITY           SKY/WX    TMP DP  RH WIND       PRES   REMARKS
ESTEVAN        MOCLDY    54  50  87 N6        30.06R
KINDERSLEY     MOCLDY    54  50  87 NW5       30.17S
LLOYDMINSTER   CLEAR     48  43  81 SW7       30.16S
PRINCE ALBERT  PTCLDY    50  46  87 W3        30.11S
REGINA         MOCLDY    57  50  77 N9        30.10R
YORKTON        MOCLDY    54  46  76 N9        30.07R
N. BATTLEFORD  CLEAR     46  43  87 CALM      30.17S
LA RONGE       NOT AVBL
SASKATOON      MOCLDY    55  46  71 N5        30.15R
SWIFT CURRENT  CLOUDY    55  50  82 N14       30.16R
$$
NOTE: THESE ARE AUTOMATED STATIONS WITH LIMITED QUALITY CONTROL
      "FAIR" INDICATES FEW OR NO CLOUDS BELOW 12,000 FEET WITH NO
      SIGNIFICANT WEATHER AND/OR OBSTRUCTIONS TO VISIBILITY.
      SKY/WX - SKY CONDITION AND SIGNIFICANT WEATHER.
      TMP - AIR TEMPERATURE.    DP   - DEWPOINT TEMPERATURE.
      RH  - RELATIVE HUMIDITY.  PRES - PRESSURE.
      HX  - HEAT INDEX.         WCI  - WIND CHILL INDEX.
$


USA.gov is the U.S. government's official web portal to all federal, state and local government web resources and services.